Location: Caltech
(34.1382°N, 118.1253°W)
Time: 09:54:18
(UTC-07:00)

Iridium 72 - Visible Passes

Search period start: 25 May 2016 00:00
Search period end: 04 June 2016 00:00
Orbit: 776 x 779 km, 86.4° (Epoch: 24 May)

Date Brightness Start Highest point End Pass type
(mag) Time Alt. Az. Time Alt. Az. Time Alt. Az.
25 May 5.5 22:07:06 10° N 22:12:20 83° W 22:13:47 49° S visible
26 May 5.8 21:33:43 10° N 21:38:48 50° E 21:40:39 34° SE visible
26 May 7.9 23:16:11 10° NW 23:18:59 15° W 23:21:09 12° WSW visible
27 May 6.6 21:00:48 10° NNE 21:05:08 26° E 21:07:33 19° ESE visible
27 May 7.2 22:41:21 10° NNW 22:45:45 28° W 22:48:02 20° WSW visible
28 May 7.4 20:28:48 10° NE 20:31:21 14° ENE 20:33:54 10° ESE visible
28 May 6.1 22:07:18 10° NNW 22:12:23 55° W 22:14:57 28° SSW visible
29 May 5.4 21:33:41 10° N 21:38:55 76° E 21:41:52 26° S visible
30 May 6.1 21:00:27 10° NNE 21:05:19 39° E 21:08:49 17° SE visible
30 May 7.8 22:42:04 10° NW 22:45:41 19° W 22:49:16 10° SW visible
31 May 6.9 20:27:47 10° NNE 20:31:37 20° E 20:35:25 10° SE visible
31 May 6.8 22:07:38 10° NNW 22:12:23 36° W 22:16:17 14° SSW visible
01 Jun 5.7 21:33:47 10° N 21:38:59 72° W 21:43:16 15° S visible
02 Jun 5.6 21:00:19 10° N 21:05:28 58° E 21:10:16 12° SSE visible
02 Jun 8.2 22:43:23 10° NW 22:45:34 13° W 22:47:45 10° WSW visible
03 Jun 6.4 20:27:16 10° NNE 20:31:50 30° E 20:36:21 10° SE visible
03 Jun 7.5 22:08:10 10° NNW 22:12:20 25° W 22:16:30 10° SW visible
